Regional Weather Roundup
Issued by NWS Goodland, KS

Home | Current Version | Previous Version | Text Only | Print | Product List | Glossary Off
Versions: 1 2 3 4 5 6 7 8 9 10 11 12 13 14 15 16 17 18 19 20 21 22 23 24 25 26 27 28 29 30 31 32 33 34 35 36 37 38 39 40 41 42 43 44 45 46 47 48 49 50

605
ASUS43 KGLD 252308
RWRGLD

GOODLAND FORECAST AREA HOURLY WEATHER ROUNDUP
NATIONAL WEATHER SERVICE GOODLAND KS
500 PM MDT SAT MAR 25 2017

...OFFICIAL OBSERVATIONS...

CITY           SKY/WX    TMP DP  RH WIND       PRES   REMARKS
GOODLAND KS    CLOUDY    59  26  28 S8        29.89F
HILL CITY KS   SUNNY     54  42  64 E9        29.91S
IMPERIAL NEB   CLOUDY    59  26  28 SE5       29.88F
MCCOOK NEB     SUNNY     63  33  32 E9        29.86F
AKRON CO       CLOUDY    59  29  31 SE10      29.87F
BURLINGTON CO  CLOUDY    59  29  31 CALM      29.90F
LIMON CO       CLOUDY    55  28  35 S9        29.89F
$$

...UNOFFICIAL OBSERVATIONS...

CITY           SKY/WX    TMP DP  RH WIND       PRES   REMARKS
LENORA KS        N/A     53  32  45 CALM        N/A
NORTON KS      SUNNY     54  39  58 E10       29.89S
SHARON SPRINGS   N/A     62  30  30 CALM        N/A
TRENTON NEB      N/A     61  32  33 CALM        N/A
YUMA CO        FAIR      57  32  38 SE9       29.89F
$$




USA.gov is the U.S. government's official web portal to all federal, state and local government web resources and services.